TimeEST,TemperatureF,Dew PointF,Humidity,Sea Level PressureIn,VisibilityMPH,Wind Direction,Wind SpeedMPH,Gust SpeedMPH,PrecipitationIn,Events,Conditions,WindDirDegrees,DateUTC
12:54 AM,46.0,35.1,66,30.52,10.0,NE,12.7,-,N/A,,Mostly Cloudy,40,2012-11-19 05:54:00
1:54 AM,45.0,36.0,71,30.51,10.0,NE,12.7,-,N/A,,Mostly Cloudy,40,2012-11-19 06:54:00
2:54 AM,44.1,36.0,73,30.50,10.0,NNE,15.0,-,N/A,,Mostly Cloudy,30,2012-11-19 07:54:00
3:54 AM,43.0,35.1,74,30.48,10.0,NNE,12.7,-,N/A,,Scattered Clouds,30,2012-11-19 08:54:00
4:54 AM,43.0,35.1,74,30.47,10.0,NE,13.8,23.0,N/A,,Scattered Clouds,40,2012-11-19 09:54:00
5:54 AM,41.0,34.0,76,30.48,10.0,NNE,15.0,-,N/A,,Clear,30,2012-11-19 10:54:00
6:54 AM,39.9,34.0,79,30.47,10.0,NNE,11.5,-,N/A,,Scattered Clouds,30,2012-11-19 11:54:00
7:54 AM,39.9,34.0,79,30.47,10.0,NE,10.4,-,N/A,,Mostly Cloudy,40,2012-11-19 12:54:00
8:40 AM,41.0,33.8,76,30.46,10.0,NE,10.4,-,N/A,,Mostly Cloudy,40,2012-11-19 13:40:00
8:54 AM,42.1,34.0,73,30.46,10.0,NE,11.5,-,N/A,,Mostly Cloudy,40,2012-11-19 13:54:00
9:54 AM,43.0,35.1,74,30.46,10.0,NE,13.8,-,N/A,,Overcast,50,2012-11-19 14:54:00
10:54 AM,45.0,36.0,71,30.44,10.0,NE,12.7,-,N/A,,Mostly Cloudy,40,2012-11-19 15:54:00
11:31 AM,46.4,37.4,71,30.41,10.0,NE,11.5,-,N/A,,Mostly Cloudy,40,2012-11-19 16:31:00
11:54 AM,48.9,37.9,66,30.40,10.0,North,11.5,-,N/A,,Mostly Cloudy,10,2012-11-19 16:54:00
12:54 PM,51.1,39.0,63,30.36,10.0,NE,8.1,18.4,N/A,,Mostly Cloudy,40,2012-11-19 17:54:00
1:54 PM,53.1,39.9,61,30.34,10.0,NE,13.8,-,N/A,,Mostly Cloudy,40,2012-11-19 18:54:00
2:54 PM,52.0,39.9,63,30.32,10.0,ENE,6.9,-,N/A,,Mostly Cloudy,60,2012-11-19 19:54:00
3:54 PM,52.0,39.9,63,30.32,10.0,ENE,6.9,-,N/A,,Mostly Cloudy,60,2012-11-19 20:54:00
4:15 PM,51.8,39.2,62,30.33,10.0,ENE,6.9,-,N/A,,Mostly Cloudy,70,2012-11-19 21:15:00
4:54 PM,51.1,39.0,63,30.32,10.0,ENE,8.1,-,N/A,,Mostly Cloudy,60,2012-11-19 21:54:00
5:54 PM,50.0,39.0,66,30.32,10.0,NE,8.1,17.3,N/A,,Overcast,50,2012-11-19 22:54:00
5:56 PM,50.0,39.2,66,30.32,10.0,NE,8.1,-,N/A,,Overcast,40,2012-11-19 22:56:00
6:54 PM,50.0,37.9,63,30.31,10.0,NE,9.2,-,N/A,,Overcast,50,2012-11-19 23:54:00
7:54 PM,48.9,39.0,69,30.30,10.0,ENE,5.8,-,N/A,,Overcast,60,2012-11-20 00:54:00
8:54 PM,48.9,37.9,66,30.29,10.0,NE,9.2,-,N/A,,Overcast,40,2012-11-20 01:54:00
9:54 PM,48.0,39.0,71,30.28,10.0,NE,10.4,-,N/A,,Overcast,40,2012-11-20 02:54:00
10:54 PM,48.0,39.0,71,30.25,10.0,ENE,6.9,-,N/A,,Overcast,60,2012-11-20 03:54:00
11:46 PM,46.4,39.2,76,30.25,10.0,NE,8.1,-,N/A,,Overcast,40,2012-11-20 04:46:00
11:54 PM,46.9,39.0,74,30.25,10.0,NE,10.4,-,N/A,,Overcast,50,2012-11-20 04:54:00